Other Public Products
Issued by NWS Grand Forks, ND

Home | Current Version | Previous Version | Graphics & Text | Print | Product List | Glossary On
Versions: 1 2 3 4 5 6 7 8 9 10 11 12 13 14 15 16 17 18 19 20 21 22 23 24 25 26 27 28 29 30 31 32 33 34 35 36 37 38 39 40 41 42 43 44 45 46 47 48 49 50
000
FPUS83 KFGF 310210
OPUFGF
PRAIRIE TO PINES WEATHER ROUNDUP
NATIONAL WEATHER SERVICE EASTERN NORTH DAKOTA/GRAND FORKS ND
900 PM CDT THU JUL 30 2015

 **SATELLITE DATA USED TO AUGMENT SKY COVER AT AUTOMATED STATIONS**
 *****  WEATHER ACROSS EASTERN NORTH DAKOTA  *****

CITY           SKY/WX    TMP DP  RH WIND       PRES   REMARKS
GRAND FORKS    PTCLDY    71  50  47 NW9       29.99R
GRAND FORKS AF CLEAR     71  49  46 NW9       30.01R
GRAND CITY NWS   N/A     72 N/A N/A W13         N/A
BUXTON         NOT AVBL
DEVILS LAKE    CLEAR     68  50  52 NW7       30.05R
FARGO          CLEAR     71  57  61 W8        30.01S
WAHPETON ARPT  CLEAR     70  54  56 W6        30.03S
$$

 *****  WEATHER ACROSS CENTRAL AND WESTERN NORTH DAKOTA  *****

CITY           SKY/WX    TMP DP  RH WIND       PRES   REMARKS
JAMESTOWN      CLEAR     70  54  56 W7        30.08R
BISMARCK       CLEAR     76  50  40 N7        30.11F
MINOT          CLEAR     70  46  42 NW10      30.11S
MINOT AFB      CLEAR     71  51  48 W7        30.10S
GARRISON         N/A     69  56  62 N7        30.12S
WILLISTON      CLEAR     78  45  30 N8        30.13S
DICKINSON      CLEAR     75  48  38 NE5       30.14F
HETTINGER      CLEAR     75  46  35 NE10      30.17S
$$

 *****  OTHER OBSERVATIONS NORTHEAST NORTH DAKOTA  *****

CITY           SKY/WX    TMP DP  RH WIND       PRES   REMARKS
WALHALLA       FAIR      68  50  52 MISG      29.99S
LANGDON        FAIR      66  52  59 W9        30.04S
CAVALIER       FAIR      72  48  43 W10       29.98S
GRAFTON        FAIR      72  52  49 W16       29.99S
CANDO          NOT AVBL
FORT TOTTEN      N/A     71  50  46 NW7       29.95
ROLLA          FAIR      63  50  63 NW9       30.08S
RUGBY          NOT AVBL
 ***** THE ABOVE OBSERVATIONS ARE NON NWS ARE NOT QUALITY
        CONTROLLED AND MAY MIS-REPORT RAIN FOR SNOW...
$$

 *****  OTHER OBSERVATIONS SOUTHEAST NORTH DAKOTA *****

CITY           SKY/WX    TMP DP  RH WIND       PRES   REMARKS
COOPERSTOWN    NOT AVBL
VALLEY CITY    FAIR      72  55  56 W8        30.06R
OAKES            N/A     70  61  73 W6        30.08S
GWINNER        FAIR      73  57  56 W7        30.07S
SHEYENNE NWR     N/A     73  57  57 W3        29.95S
BUFFALO        NOT AVBL
WYNDMERE       NOT AVBL
 ***** THE ABOVE OBSERVATIONS ARE NON NWS ARE NOT QUALITY
       CONTROLLED AND MAY MIS-REPORT RAIN FOR SNOW...
$$

  *****  WEATHER ACROSS NORTHERN MINNESOTA  *****

CITY           SKY/WX    TMP DP  RH WIND       PRES   REMARKS
FLAG ISLAND    MOCLDY    70  54  56 W10       29.88S
WARROAD        PTCLDY    68  61  77 W6        29.92S
ROSEAU         CLEAR     70  59  68 W7        29.93R
HALLOCK        CLEAR     70  54  56 NW10      29.96R
THF RVR FALLS  PTCLDY    72  50  46 W10       29.98R
HALSTAD        NOT AVBL
FOSSTON        MOCLDY    66  55  68 W5        29.99S
BAUDETTE       CLOUDY    68  55  63 N8        29.92R
WASKISH        CLOUDY    73  61  64 W13       29.93R
CROOKSTON      PTCLDY    72  54  53 NW10      29.99R
$$
  *****  WEATHER ACROSS CENTRAL AND WEST MINNESOTA  *****

CITY           SKY/WX    TMP DP  RH WIND       PRES   REMARKS
BEMIDJI        MOCLDY    72  55  55 W9        29.97S
PARK RAPIDS    CLEAR     71  52  50 W10       30.00S
WADENA         CLEAR     72  54  53 W5        30.01S
DETROIT LAKES  CLEAR     72  55  56 W9        30.03S
MOORHEAD       CLEAR     70  57  64 W8        30.02S
FERGUS FALLS   CLEAR     70  59  68 NW7       30.02S
ELBOW LAKE     FAIR      69  59  70 W5        30.04R
MORRIS MN      CLEAR     72  63  73 NW5       30.04R
STAPLES        CLEAR     66  55  68 W6        30.01S
WHEATON        CLEAR     72  59  64 W6        30.06S
$$
  *****  WEATHER ELSEWHERE ACROSS MINNESOTA  *****

CITY           SKY/WX    TMP DP  RH WIND       PRES   REMARKS
DULUTH         PTCLDY    69  54  58 W8        29.93S
INTRNTL FALLS  MOCLDY    63  55  75 W5        29.89R
ELY            CLEAR     70  54  56 W8        29.89S
CLOQUET        CLEAR     72  52  49 W8        29.95S
BRAINERD       CLEAR     73  54  51 W8        30.00R
HIBBING        CLEAR     69  54  58 W5        29.93S
ALEXANDRIA     CLEAR     71  58  63 W7        30.05S
SAINT CLOUD    CLEAR     74  58  57 W7        30.00S
MINNEAPOLIS    PTCLDY    79  59  50 W8        30.00F
$$

  *****  WEATHER ACROSS SOUTH DAKOTA  *****

CITY           SKY/WX    TMP DP  RH WIND       PRES   REMARKS
SIOUX FALLS    PTCLDY    76  61  59 W3        30.09S
BROOKINGS      CLEAR     75  63  64 W3        30.10S
WATERTOWN      CLEAR     75  58  55 NW6       30.09R
HURON          CLEAR     79  62  56 NW3       30.07R
SISSETON         N/A     70  62  76 NW6       30.05R
ABERDEEN       CLEAR     75  57  53 N7        30.08S
MITCHELL       CLEAR     79  62  56 S5        30.08F
PIERRE         CLEAR     77  53  43 NE9       30.08R
MOBRIDGE       CLEAR     75  55  49 NE6       30.09S
RAPID CITY     CLEAR     79  48  33 SW3       30.19F
$$

  *****  SOME WEATHER IN NEARBY STATES *****

CITY           SKY/WX    TMP DP  RH WIND       PRES   REMARKS
GLASGOW MT     CLEAR     82  42  24 NW6       30.13S
GREAT FALLS MT CLEAR     83  37  19 E7        30.17F
CHEYENNE WY    CLEAR     76  42  29 NE8       30.35R
SCOTTSBLUFF NE CLEAR     77  52  41 NE9       30.21S
OMAHA NE       PTCLDY    80  71  74 CALM      30.10S
DES MOINES IA  PTCLDY    77  64  64 W6        30.09S
DAVENPORT IA   CLEAR     72  68  87 W5        30.06R
CHICAGO IL     CLEAR     80  59  48 W8        29.99S
EAU CLAIRE WI  CLEAR     73  57  57 W7        29.98S
LA CROSSE WI   CLEAR     78  59  51 W7        30.00S
$$

  *****  SOME NATIONAL WEATHER *****

CITY           SKY/WX    TMP DP  RH WIND       PRES   REMARKS
LA GUARDIA NY  MOCLDY    79  71  76 SW7       29.83R
RALEIGH NC     PTCLDY    82  75  79 CALM      29.92R
ATLANTA GA     MOCLDY    79  73  82 NW6       29.96R
NEW ORLEANS LA CLOUDY    80  74  81 NW7       29.97R
OKLAHOMA CITY  MOCLDY    83  74  74 NE10      30.10S
ALBUQUERQUE NM CLOUDY    75  59  57 E10       30.30R
SALT LAKE CITY PTCLDY    89  22   8 NW8       30.19S
LOS ANGELES CA MOSUNNY   72  66  81 W10       29.97S
BOISE ID       SUNNY     92  31  11 W8        30.11F
SEATTLE WA     SUNNY     90  42  18 N12       30.03S
$$

*** WEATHER ACROSS MANITOBA...SASKATCHEWAN AND ONTARIO ***
                ***ONTARIO***

CITY           SKY/WX    TMP DP  RH WIND       PRES   REMARKS
GERALDTON      PTCLDY    61  57  88 W7        29.71S
THUNDER BAY    MOCLDY    59  57  94 W9        29.83S
SIOUX LOOKOUT  MOCLDY    61  57  88 W5        29.81R
TORONTO        PTCLDY    75  55  50 W10       29.85R
BIG TROUT LK   CLEAR     63  52  67 NW15G25   29.61S
PICKLE LAKE    MOCLDY    64  52  63 NW5       29.72S
DRYDEN         CLOUDY    61  57  88 W12G21    29.86R
KENORA         MOCLDY    61  55  82 NW10      29.90S
$$
                *** MANITOBA***

CITY           SKY/WX    TMP DP  RH WIND       PRES   REMARKS
BRANDON        PTCLDY    63  54  72 W8        30.03R
DAUPHIN        RAIN      66  55  68 N16G25    29.98R
ISLAND LAKE    PTCLDY    64  52  63 NW6       29.74S
PILOT MOUND      N/A     64  50  59 NW9         N/A
THE PAS        CLOUDY    63  55  77 W8        29.91R
THOMPSON       MOCLDY    66  54  63 W3        29.78S
WINNIPEG       PTCLDY    63  59  88 W8        29.92S
LYNN LAKE      PTCLDY    68  48  49 NW9       29.84R
CHURCHILL      MOCLDY    54  50  87 N12       29.68R
GILLAM         PTCLDY    63  57  82 N8        29.70F
$$
                ***SASKATCHEWAN***

CITY           SKY/WX    TMP DP  RH WIND       PRES   REMARKS
ESTEVAN        NOT AVBL
KINDERSLEY     PTCLDY    72  45  37 N6        30.13S
LLOYDMINSTER   PTCLDY    70  45  40 W9        30.11F
PRINCE ALBERT  PTCLDY    70  50  49 NW8       30.02R
REGINA         PTCLDY    72  55  56 NW8       30.11S



USA.gov is the U.S. government's official web portal to all federal, state and local government web resources and services.